Regional Weather Roundup
Issued by NWS Newport/Morehead, NC

Current Version | Previous Version | Graphics & Text | Print | Product List | Glossary Off
Versions: 1 2 3 4 5 6 7 8 9 10 11 12 13 14 15 16 17 18 19 20 21 22 23 24 25 26 27 28 29 30 31 32 33 34 35 36 37 38 39 40 41 42 43 44 45 46 47 48 49 50

000
ASUS42 KMHX 030213
RWRMHX
WEATHER ROUNDUP FOR EASTERN NORTH CAROLINA
NATIONAL WEATHER SERVICE NEWPORT/MOREHEAD CITY NC
1000 PM EDT WED SEP 02 2015

NOTE: "FAIR" INDICATES FEW OR NO CLOUDS BELOW 12,000 FEET
WITH NO SIGNIFICANT WEATHER AND/OR OBSTRUCTIONS TO VISIBILITY

NCZ015>017-031-032-045>047-102-103-030300-
NORTH COAST

CITY           SKY/WX    TMP DP  RH WIND       PRES   REMARKS
EDENTON        CLOUDY    75  66  73 W10       29.99R
ELIZABETH CITY LGT RAIN  72  70  93 SW8       29.96S
KITTY HAWK     MOCLDY    78  72  80 CALM      29.95S
MANTEO         MOCLDY    79  74  83 SW6       29.96F

$$

NCZ045>047-081-094-103-104-030300-
CENTRAL COAST

CITY           SKY/WX    TMP DP  RH WIND       PRES   REMARKS
FRISCO         PTCLDY    75  72  90 W3        29.97S
SWANQUARTER      N/A     81 N/A N/A S7        29.94S

$$

NCZ095-097-098-100-101-030300-
SOUTHERN COAST

CITY           SKY/WX    TMP DP  RH WIND       PRES   REMARKS
BEAUFORT       PTCLDY    78  75  90 S3        29.97R
CEDAR ISLAND     N/A     79 N/A N/A SW3       30.00S
JACKSONVILLE   PTCLDY    79  74  84 CALM      29.96R
PINEY ISLAND   CLEAR    N/A N/A N/A S5        29.97R
WILMINGTON     MOCLDY    80  74  81 SW6       29.97R


$$

NCZ011>013-027>030-043-044-078>080-089-090>093-098-030300-
COASTAL PLAIN

CITY           SKY/WX    TMP DP  RH WIND       PRES   REMARKS
AHOSKIE        CLOUDY    69  67  93 NW5       30.00R
CLINTON        PTCLDY    76  74  91 CALM      29.96S
ELIZABETHTOWN  PTCLDY    80  73  79 CALM      29.97R
GOLDSBORO      NOT AVBL
GREENVILLE     MOCLDY    79  73  83 NE12      29.99R
HAVELOCK       PTCLDY    78  74  87 S6        29.98R
KENANSVILLE      N/A     75  73  93 CALM      29.97S
KINSTON        CLEAR     75  73  94 CALM      29.97R
NEW BERN       CLEAR     78  74  87 S5        29.97S
RICHLANDS      PTCLDY    77  70  78 CALM      29.97R
ROCKY MOUNT    CLOUDY    77  69  76 N17G25    30.00R
WASHINGTON     PTCLDY    78  72  82 N20       29.98R
WHITEVILLE     PTCLDY    78  73  84 CALM      29.97R

$$

AMZ130-135-150-152-154-156-158-170-250-252-270-ANZ085-086-088-633-658-670-030300-
MARINE OBSERVATIONS

STATION/POSITION TIME  TEMP    WIND        PRES    WAVE   SWELL
                       AIR SEA DIR/SP/G            HT/PER HT/PER
                 (UTC) (F)     (DEG/KT/KT) (MB)    (FT/S) (FT/S)
CHESAPEAKE LIGHT 0200   77     230/  7/  8 1014.5
64 E VA BEACH    0150   80 79  250/ 10/ 12 1013.5    1/ 8   2/ 8
DUCK             0100      78  260/  5/  7 1013.4
2 E DUCK         0111      81                N/A     1/13
OREGON INLET     0100      83  200/  7/  8 1014.1
13E OREGON INLT  0200      80                N/A     1/13
HATTERAS CG      0100      83  230/  4/  4 1014.4
DIAMOND BUOY     0150   81 86  290/  2/  4 1015.0    1/ 9   2/ 9
CAPE LOOKOUT     0200   81     220/  4/  4 1014.7
BEAUFORT LAB     0100      82  210/  4/  6 1014.0
30 SE NEW RVR IN 0108   82 83  250/  6/ 10 1015.1
30 SE NEW RVR IN 0125      83                N/A     2/13
27 SE WRIGHTSVLE 0100   79 82  260/  8/ 12   N/A
5 SE WRIGHTSVLE  0108   83 82  250/ 10/ 12 1014.5
225 S CAPE HAT   0150   83 84  300/  8/  8 1015.3    2/14   2/14
41 SE CHARLESTON 0150   82 84  230/  6/  8 1015.5    1/ 9   2/ 9

$$


USA.gov is the U.S. government's official web portal to all federal, state and local government web resources and services.